• In Russia
  • List of Countries
  • For 7 days
  • Water Temperature
  • Satellite Maps
  • Weather Map
  • Weather Widgets
  • user-avatar
    Login

    Hourly Weather Tolna

    Today, 19 October, Thursday

    Time Temperature Precipitation Wind Pressure Humidity
    00:00 +16°C° 0 mm 2 mps 753 mmHg 56%
    01:00 +16°C° 0 mm 2 mps 753 mmHg 57%
    02:00 +15°C° 0 mm 2 mps 753 mmHg 59%
    03:00 +15°C° 0 mm 2 mps 753 mmHg 60%
    04:00 +14°C° 0 mm 2 mps 753 mmHg 61%
    05:00 +14°C° 0 mm 2 mps 753 mmHg 62%
    06:00 +14°C° 0 mm 2 mps 753 mmHg 63%
    07:00 +13°C° 0 mm 2 mps 753 mmHg 64%
    08:00 +16°C° 0 mm 2 mps 753 mmHg 57%
    09:00 +18°C° 0 mm 2 mps 754 mmHg 50%
    10:00 +20°C° 0 mm 3 mps 754 mmHg 43%
    11:00 +21°C° 0 mm 3 mps 754 mmHg 39%
    12:00 +24°C° 0 mm 3 mps 753 mmHg 35%
    13:00 +25°C° 0 mm 3 mps 753 mmHg 31%
    14:00 +24°C° 0 mm 3 mps 753 mmHg 33%
    15:00 +24°C° 0 mm 2 mps 753 mmHg 35%
    16:00 +23°C° 0 mm 2 mps 753 mmHg 38%
    17:00 +20°C° 0 mm 2 mps 753 mmHg 42%
    18:00 +19°C° 0 mm 2 mps 753 mmHg 47%
    19:00 +18°C° 0 mm 1 mps 753 mmHg 51%
    20:00 +18°C° 0 mm 1 mps 753 mmHg 54%
    21:00 +16°C° 0 mm 1 mps 753 mmHg 57%
    22:00 +15°C° 0 mm 1 mps 753 mmHg 59%
    23:00 +15°C° 0 mm 1 mps 754 mmHg 62%

    Tomorrow, 20 October, Friday

    Time Temperature Precipitation Wind Pressure Humidity
    00:00 +15°C° 0 mm 1 mps 754 mmHg 64%
    01:00 +14°C° 0 mm 1 mps 754 mmHg 66%
    02:00 +14°C° 0 mm 1 mps 754 mmHg 67%
    03:00 +14°C° 0 mm 1 mps 754 mmHg 69%
    04:00 +13°C° 0 mm 1 mps 754 mmHg 71%
    05:00 +13°C° 0 mm 1 mps 754 mmHg 71%
    06:00 +13°C° 0 mm 1 mps 754 mmHg 71%
    07:00 +13°C° 0 mm 1 mps 754 mmHg 71%
    08:00 +15°C° 0 mm 1 mps 755 mmHg 63%
    09:00 +19°C° 0 mm 1 mps 755 mmHg 55%
    10:00 +20°C° 0 mm 2 mps 755 mmHg 46%
    11:00 +21°C° 0 mm 2 mps 755 mmHg 42%
    12:00 +23°C° 0 mm 2 mps 755 mmHg 38%
    13:00 +24°C° 0 mm 2 mps 754 mmHg 33%
    14:00 +24°C° 0 mm 2 mps 754 mmHg 35%
    15:00 +23°C° 0 mm 2 mps 754 mmHg 36%
    16:00 +23°C° 0 mm 1 mps 754 mmHg 38%
    17:00 +21°C° 0 mm 1 mps 754 mmHg 42%
    18:00 +20°C° 0 mm 1 mps 754 mmHg 46%
    19:00 +18°C° 0 mm 1 mps 755 mmHg 51%
    20:00 +18°C° 0 mm 1 mps 755 mmHg 53%
    21:00 +16°C° 0 mm 1 mps 755 mmHg 56%
    22:00 +16°C° 0 mm 1 mps 756 mmHg 58%
    23:00 +15°C° 0 mm 1 mps 756 mmHg 60%

    Day after tomorrow, 21 October, Saturday

    Time Temperature Precipitation Wind Pressure Humidity
    00:00 +15°C° 0 mm 1 mps 756 mmHg 62%
    01:00 +14°C° 0 mm 0 mps 756 mmHg 64%
    02:00 +14°C° 0 mm 1 mps 756 mmHg 67%
    03:00 +14°C° 0 mm 1 mps 756 mmHg 69%
    04:00 +13°C° 0 mm 1 mps 756 mmHg 72%
    05:00 +13°C° 0 mm 1 mps 756 mmHg 73%
    06:00 +13°C° 0 mm 1 mps 756 mmHg 75%
    07:00 +13°C° 0 mm 1 mps 756 mmHg 76%
    08:00 +15°C° 0 mm 1 mps 756 mmHg 69%
    09:00 +18°C° 0 mm 1 mps 757 mmHg 62%
    10:00 +20°C° 0 mm 1 mps 757 mmHg 54%
    11:00 +21°C° 0 mm 1 mps 756 mmHg 51%
    12:00 +22°C° 0 mm 1 mps 756 mmHg 48%
    13:00 +23°C° 0 mm 1 mps 756 mmHg 45%
    14:00 +23°C° 0 mm 1 mps 755 mmHg 46%
    15:00 +22°C° 0 mm 1 mps 755 mmHg 47%
    16:00 +22°C° 0 mm 1 mps 755 mmHg 49%
    17:00 +21°C° 0 mm 1 mps 755 mmHg 53%
    18:00 +19°C° 0 mm 1 mps 755 mmHg 56%
    19:00 +16°C° 0 mm 0 mps 755 mmHg 60%
    20:00 +15°C° 0 mm 0 mps 755 mmHg 62%
    21:00 +15°C° 0 mm 0 mps 755 mmHg 64%
    22:00 +14°C° 0 mm 0 mps 755 mmHg 66%
    23:00 +14°C° 0 mm 0 mps 755 mmHg 68%

    22 October, Sunday

    Time Temperature Precipitation Wind Pressure Humidity
    00:00 +14°C° 0 mm 0 mps 755 mmHg 69%
    01:00 +13°C° 0 mm 0 mps 754 mmHg 71%
    02:00 +13°C° 0 mm 0 mps 754 mmHg 72%
    03:00 +13°C° 0 mm 0 mps 754 mmHg 74%
    04:00 +12°C° 0 mm 0 mps 754 mmHg 76%
    05:00 +13°C° 0 mm 0 mps 754 mmHg 75%
    06:00 +13°C° 0 mm 0 mps 754 mmHg 74%
    07:00 +14°C° 0 mm 1 mps 754 mmHg 74%
    08:00 +16°C° 0 mm 1 mps 754 mmHg 67%
    09:00 +18°C° 0 mm 1 mps 753 mmHg 60%
    10:00 +20°C° 0 mm 1 mps 753 mmHg 54%
    11:00 +21°C° 0 mm 1 mps 753 mmHg 51%
    12:00 +22°C° 0 mm 1 mps 752 mmHg 48%
    13:00 +23°C° 0 mm 1 mps 752 mmHg 44%
    14:00 +22°C° 0 mm 1 mps 751 mmHg 46%
    15:00 +22°C° 0 mm 1 mps 751 mmHg 47%
    16:00 +21°C° 0 mm 1 mps 750 mmHg 49%
    17:00 +19°C° 0.1 mm 2 mps 750 mmHg 52%
    18:00 +18°C° 0.1 mm 2 mps 750 mmHg 55%
    19:00 +17°C° 0.1 mm 2 mps 750 mmHg 58%
    20:00 +15°C° 1.5 mm 4 mps 750 mmHg 65%
    21:00 +14°C° 1.5 mm 5 mps 750 mmHg 72%
    22:00 +13°C° 1.5 mm 6 mps 750 mmHg 80%
    23:00 +11°C° 1.7 mm 7 mps 750 mmHg 79%

    23 October, Monday

    Time Temperature Precipitation Wind Pressure Humidity
    00:00 +10°C° 1.7 mm 8 mps 750 mmHg 79%
    01:00 +10°C° 1.7 mm 9 mps 750 mmHg 79%
    02:00 +8°C° 0.1 mm 9 mps 750 mmHg 76%
    03:00 +8°C° 0.1 mm 9 mps 750 mmHg 74%
    04:00 +8°C° 0.1 mm 9 mps 750 mmHg 71%
    05:00 +8°C° 0.1 mm 9 mps 750 mmHg 70%
    06:00 +8°C° 0.1 mm 9 mps 750 mmHg 70%
    07:00 +8°C° 0.1 mm 9 mps 750 mmHg 69%
    08:00 +8°C° 0.1 mm 10 mps 750 mmHg 68%
    09:00 +9°C° 0.1 mm 10 mps 751 mmHg 67%
    10:00 +9°C° 0.1 mm 10 mps 751 mmHg 66%
    11:00 +9°C° 0.1 mm 10 mps 751 mmHg 66%
    12:00 +9°C° 0.1 mm 10 mps 751 mmHg 67%
    13:00 +9°C° 0.1 mm 10 mps 751 mmHg 67%
    14:00 +10°C° 0.4 mm 9 mps 751 mmHg 68%
    15:00 +10°C° 0.4 mm 9 mps 751 mmHg 69%
    16:00 +10°C° 0.4 mm 9 mps 752 mmHg 70%
    17:00 +10°C° 0.4 mm 9 mps 752 mmHg 69%
    18:00 +10°C° 0.4 mm 8 mps 753 mmHg 69%
    19:00 +10°C° 0.4 mm 8 mps 753 mmHg 69%
    20:00 +10°C° 0.2 mm 8 mps 753 mmHg 69%
    21:00 +9°C° 0.2 mm 8 mps 754 mmHg 69%
    22:00 +9°C° 0.2 mm 8 mps 754 mmHg 70%
    23:00 +9°C° 0.1 mm 7 mps 755 mmHg 70%

    24 October, Tuesday

    Time Temperature Precipitation Wind Pressure Humidity
    00:00 +9°C° 0.1 mm 7 mps 755 mmHg 71%
    01:00 +9°C° 0.1 mm 7 mps 755 mmHg 72%
    02:00 +9°C° 0 mm 7 mps 755 mmHg 73%
    03:00 +9°C° 0 mm 7 mps 756 mmHg 74%
    04:00 +9°C° 0 mm 6 mps 756 mmHg 75%
    05:00 +8°C° 0 mm 6 mps 756 mmHg 76%
    06:00 +8°C° 0 mm 6 mps 757 mmHg 77%
    07:00 +8°C° 0 mm 6 mps 757 mmHg 78%
    08:00 +10°C° 0 mm 6 mps 757 mmHg 72%
    09:00 +11°C° 0 mm 6 mps 758 mmHg 66%
    10:00 +13°C° 0 mm 6 mps 758 mmHg 60%
    11:00 +14°C° 0 mm 6 mps 758 mmHg 56%
    12:00 +15°C° 0 mm 6 mps 757 mmHg 53%
    13:00 +16°C° 0 mm 6 mps 757 mmHg 49%
    14:00 +15°C° 0 mm 5 mps 757 mmHg 51%
    15:00 +15°C° 0 mm 4 mps 757 mmHg 53%
    16:00 +14°C° 0 mm 3 mps 757 mmHg 55%
    17:00 +13°C° 0 mm 3 mps 758 mmHg 60%
    18:00 +12°C° 0 mm 3 mps 758 mmHg 66%
    19:00 +11°C° 0 mm 3 mps 759 mmHg 71%
    20:00 +11°C° 0 mm 3 mps 759 mmHg 73%
    21:00 +10°C° 0 mm 3 mps 759 mmHg 76%
    22:00 +10°C° 0 mm 2 mps 760 mmHg 79%
    23:00 +9°C° 0 mm 2 mps 760 mmHg 80%
    Show more